Погода в Мацуте

Россия / Республика Северная Осетия — Алания     42°58′55″N   43°46′34″E
темп.,
°C
ветер,
м/с
пор.,
м/с
влажн.,
%
обл.,
%
осадки,
мм/ч
давл.,
гПа
погр.,
м
21 июня, пн
пн2100:00+13ююз56570 0.0 101784
03:00+13ююз56550 0.0 101774
06:00+15юз44570 0.0 101665
09:00+22в12422 0.0 1013570
12:00+23всв24460 0.0 10131527
15:00+23всв13514 0.0 10121254
18:00+19ююв126770 0.0 1013268
21:00+15ююз4556100 0.0 1016124
22 июня, вт
вт2200:00+14ююз55520 0.0 101664
03:00+14юз55480 0.0 101559
06:00+15юз43560 0.0 101546
09:00+22всв12441 0.0 1013809
12:00+22св344790 0.0 10131684
15:00+22всв135224 0.0 10131326
18:00+18ююз3560100 0.0 1014153
21:00+15ююз4540100 0.0 101673
23 июня, ср
ср2300:00+13юз44430 0.0 101752
03:00+13юз44400 0.0 101747
06:00+14юз44510 0.0 101658
09:00+21всв22410 0.0 1014767
12:00+22св23460 0.0 10151281
15:00+21св23500 0.0 10151259
18:00+18всв12670 0.0 1016361
21:00+13ююз43531 0.0 101831
24 июня, чт
чт2400:00+13юз44400 0.0 101842
03:00+13юз43383 0.0 101739
06:00+14юз33542 0.0 101750
09:00+20всв12450 0.0 1015670
12:00+21св23517 0.0 10151230
15:00+19св336845 0.4 1016927
18:00+17всв127537 0.2 1017275
21:00+13ююз32640 0.2 101921
25 июня, пт
пт2500:00+13юз43530 0.0 101836
03:00+13юз44430 0.0 101745
06:00+14юз44531 0.0 101756
09:00+20всв12470 0.0 1014757
12:00+21св335724 0.2 10141222
15:00+19св226640 1.0 1015938
18:00+17св127542 0.3 1016303
21:00+13ююз337263 0.4 101828